Flag for U.S.A. Weather past 2 weeks in Glendale, Arizona, U.S.A.

Now
63 °F

Overcast.


Feels Like: 63 °F
Forecast: 56 / 71 °F
Wind: 5 mph from Southwest

Location: Phoenix-Deer Valley Municipal Airport

Current Time: Jan 26, 2015 at 8:39:58 PM

Latest Report: Jan 26, 2015 at 7:53 PM


Visibility: 10 mi

Pressure: 30.09 "Hg

Humidity: 31%

Dew point: 32 °F

Location of GlendaleLocation

Historic Weather in Glendale — Graph

°F

Glendale temperature yesterday

Maximum temperature yesterday: 74 °F (at 3:53 PM)
Minimum temperature yesterday: 48 °F (at 2:53 AM)
Average temperature yesterday: 60 °F

Past Weeks' High & Low Weather Summary

 TemperatureHumidityPressure
High75 °F (Jan 24, 2:53 PM)97% (Jan 12, 5:53 AM)30.31 "Hg (Jan 12, 5:53 AM)
Low40 °F (Jan 23, 3:53 AM)5% (Jan 24, 2:53 PM)29.78 "Hg (Jan 21, 4:53 AM)
Average57 °F43%30.08 "Hg
* Reported Jan 11 6:53 PM — Jan 26 6:53 PM, Glendale, Weather by CustomWeather, © 2014

Note: Actual official high and low records may vary slightly from our data, if they occured in-between our weather recording intervals... More about our weather records

Advertising

Glendale weather history for previous 24 hours

 ConditionsComfort  
Time TempWeatherWind HumidityBarometerVisibility
6:53 PM
Jan 26
65 °FOvercast.No wind25%30.06 "Hg10 mi
5:53 PM66 °FOvercast.5 mph24%30.05 "Hg10 mi
4:53 PM67 °FOvercast.3 mph21%30.04 "Hg10 mi
3:53 PM67 °FScattered clouds.5 mph21%30.04 "Hg10 mi
2:53 PM68 °FSunny.6 mph21%30.05 "Hg10 mi
1:53 PM68 °FSunny.6 mph23%30.07 "Hg10 mi
12:53 PM68 °FOvercast.No wind23%30.09 "Hg10 mi
11:53 AM64 °FPartly sunny.No wind28%30.13 "Hg10 mi
10:53 AM64 °FPartly sunny.7 mph26%30.13 "Hg10 mi
9:53 AM65 °FPassing clouds.No wind25%30.10 "Hg10 mi
8:53 AM59 °FSunny.No wind32%30.09 "Hg10 mi
7:53 AM56 °FSunny.No wind33%30.07 "Hg10 mi
6:53 AM54 °FClear.3 mph35%30.05 "Hg10 mi
5:53 AM55 °FClear.No wind33%30.04 "Hg10 mi
4:53 AM57 °FClear.7 mph31%30.03 "Hg10 mi
3:53 AM59 °FClear.6 mph28%30.03 "Hg10 mi
2:53 AM58 °FClear.5 mph30%30.06 "Hg10 mi
1:53 AM58 °FClear.7 mph30%30.06 "Hg10 mi
12:53 AM57 °FClear.5 mph32%30.07 "Hg10 mi
11:53 PM
Jan 25
57 °FClear.3 mph32%30.07 "Hg10 mi
10:53 PM59 °FClear.10 mph29%30.06 "Hg10 mi
9:53 PM59 °FClear.5 mph29%30.05 "Hg10 mi
8:53 PM60 °FClear.6 mph27%30.06 "Hg10 mi
Weather by CustomWeather, © 2014

See weather overviewHow to use our weather pages